User: anonymous   Login
Location: Fours
(44.3167°N, 6.7000°E)
Time: 12:14:23
(UTC+00:00)
Language:

NOSS 3-1 (C) - Orbit

View from above orbital plane
View from above orbital plane
View from above satellite
View from above satellite

Ground track
Ground track

The orbit data is extracted from the following two-line orbital elements,

1 26907U 01040C   22014.16363693 0.00000030  00000-0  24086-4 0    05
2 26907  63.3984  68.8473 0520722   3.5155 356.4845 13.41344263    08
Epoch (UTC): 14 January 2022 03:55:38
Eccentricity: 0.0520722
inclination: 63.3984°
perigee height: 714 km
apogee height: 1494 km
right ascension of ascending node: 68.8473°
argument of perigee: 3.5155°
revolutions per day: 13.41344263
mean anomaly at epoch: 356.4845°
orbit number at epoch: 0

The dashed part of the orbit path shows where the satellite is in the earth's shadow,  

DLR